sat.trackr.live / text

‹ back to catalog

STARLINK-5072

NORAD 55758 · 2023-028T

PAYLOAD ACTIVE UNKNOWN

§ Identity

Operator
Country
US
Launch date
2023-03-03
Launch site
AFWTR
Launch vehicle
Mass (kg)
RCS (m²)

Purposes: comms

External: N2YO · Heavens-Above · Gunter

§ Orbital elements

Epoch: 2026-09-20T22:00:03.000096Z

Period
95.82 min
Inclination
70.0025°
Eccentricity
0.0001882
Mean motion
15.02746364 rev/d
Perigee alt
557.1 km
Apogee alt
559.7 km
Semi-major
6,936.6 km
B*
5.3020e-3
RAAN
112.0890°
Arg perigee
179.2299°
Mean anomaly
293.0791°
Rev number
576

§ Raw data

STARLINK-50721 55758U 23028T   26263.91670139  .00071632  00000+0  53020-2 0  99902 55758  70.0025 112.0890 0001882 179.2299 293.0791 15.02746364  5762

JSON: /api/v1/satellites/55758 · /tle

For live sub-satellite position, see the globe view (requires WebGL).

§ Visibility from observer

Set your observer location to see the next 7 days of passes ≥ 10°. The values pass through the URL so the page stays shareable.

No JS? Fill the form by hand. The geolocation button needs JavaScript.